This demonstration page uses our WeatherBlox Daily Observations layout. Learn more.

Left ArrowRight Arrow

38.80484, -77.04692

Hourly Observations for December 7, 2022

Temp ( °F °C ) Dew Point ( °F °C ) Humidity (%) Winds ( mph kmh ) Pressure ( in mb ) Visibility ( mi km ) Precip ( " mm )
12:08 am 00:08 Cloudy 50 10 49 9.4 96 96 S 7 11 30.21 1023 10 16 0.01 0.13
12:52 am 00:52 Cloudy 51 10.6 50 10 96 96 SSW 6 9 30.21 1023 9 14 0.01 0.13
1:36 am 01:36 Cloudy 51 10.6 49 9.4 92 92 S 9 15 30.20 1023 8 13 0.00 0.00
1:47 am 01:47 Cloudy 50 10 48 9 93 93 S 7 11 30.20 1023 7 11 0.00 0.00
1:52 am 01:52 Cloudy with Mist and Fog 50 10 49 9.4 96 96 SW 5 7 30.21 1023 6 10 0.00 0.00
2:52 am 02:52 Cloudy with Mist and Fog 50 10 49 9.4 96 96 S 8 13 30.19 1023 5 8 0.00 0.00
3:52 am 03:52 Cloudy with Mist and Fog 52 11.1 51 10.6 97 97 SSW 6 9 30.18 1022 4 6 0.00 0.00
4:52 am 04:52 Cloudy with Mist and Fog 53 11.7 52 11.1 96 96 VRB 3 6 30.17 1022 5 8 0.00 0.00
5:52 am 05:52 Cloudy with Mist and Fog 53 11.7 52 11.1 96 96 SW 3 6 30.18 1022 4 6 0.00 0.00
6:52 am 06:52 Cloudy with Mist and Fog 53 11.7 52 11.1 96 96 SW 3 6 30.20 1023 6 10 0.00 0.00
7:25 am 07:25 Cloudy 52 11.1 51 10.6 97 97 SSW 8 13 30.20 1023 7 11 0.00 0.00
7:52 am 07:52 Cloudy 54 12.2 52 11.1 93 93 VRB 3 6 30.19 1022 9 14 0.00 0.00
8:12 am 08:12 Cloudy with Light Rain 54 12.2 52 11.1 93 93 SW 5 7 30.20 1023 8 13 0.01 0.13
8:52 am 08:52 Cloudy with Light Rain 54 12.2 52 11.1 93 93 S 6 9 30.20 1023 6 10 0.01 0.25
9:33 am 09:33 Cloudy with Light Rain 53 11.7 52 11.1 96 96 S 7 11 30.21 1023 7 11 0.01 0.25
9:45 am 09:45 Cloudy with Light Rain 53 11.7 51 10.6 93 93 S 8 13 30.22 1023 7 11 0.01 0.25
9:52 am 09:52 Cloudy with Light Rain 54 12.2 52 11.1 93 93 SSW 7 11 30.22 1023 6 10 0.02 0.51
10:10 am 10:10 Cloudy with Light Rain 52 11.1 50 10 93 93 S 9 15 30.21 1023 4 6 0.01 0.25
10:30 am 10:30 Cloudy with Light Rain 53 11.7 51 10.6 93 93 S 12 19 30.20 1023 7 11 0.02 0.51
10:52 am 10:52 Mostly Cloudy 53 11.7 51 10.6 93 93 S 8 13 30.20 1023 9 14 0.02 0.51
11:29 am 11:29 Cloudy 54 12.2 53 11.7 97 97 S 3 6 30.18 1022 10 16 0.01 0.13
11:52 am 11:52 Cloudy 53 11.7 52 11.1 96 96 S 6 9 30.16 1021 9 14 0.01 0.13
12:52 pm 12:52 Cloudy 55 12.8 53 11.7 93 93 SSW 8 13 30.15 1021 10 16 0.01 0.13
1:52 pm 13:52 Cloudy 55 12.8 53 11.7 93 93 SSE 5 7 30.14 1021 9 14 0.00 0.00
2:52 pm 14:52 Cloudy 55 12.8 53 11.7 93 93 SSE 3 6 30.14 1021 9 14 0.00 0.00
3:52 pm 15:52 Cloudy 55 12.8 53 11.7 93 93 S 5 7 30.14 1021 7 11 0.00 0.00
4:52 pm 16:52 Cloudy with Fog 55 12.8 53 11.7 93 93 Calm 30.14 1021 6 10 0.00 0.00
5:52 pm 17:52 Cloudy 56 13.3 54 12.2 93 93 SSW 6 9 30.16 1021 7 11 0.00 0.00
6:52 pm 18:52 Cloudy 55 12.8 54 12.2 96 96 Calm 30.16 1021 7 11 0.00 0.00
7:24 pm 19:24 Cloudy with Fog 53 11.7 52 11.1 96 96 Calm 30.16 1021 6 10 0.00 0.00
7:52 pm 19:52 Cloudy with Fog 55 12.8 53 11.7 93 93 Calm 30.17 1022 6 10 0.00 0.00
8:52 pm 20:52 Cloudy 57 13.9 55 12.8 93 93 W 3 6 30.19 1022 9 14 0.00 0.00
9:52 pm 21:52 Cloudy with Mist and Fog 55 12.8 54 12.2 96 96 N 6 9 30.20 1023 6 10 0.00 0.00
10:16 pm 22:16 Mostly Cloudy 54 12.2 52 11.1 93 93 N 7 11 30.19 1022 9 14 0.00 0.00
10:48 pm 22:48 Cloudy 54 12 52 11 94 94 NNW 7 11 30.20 1023 7 11 0.00 0.00
10:52 pm 22:52 Cloudy with Mist and Fog 53 11.7 52 11.1 96 96 NNW 6 9 30.19 1023 6 10 0.00 0.00
11:13 pm 23:13 Cloudy with Mist and Fog 53 11.7 52 11.1 96 96 NNW 10 17 30.20 1023 1 2 0.00 0.00
11:21 pm 23:21 Cloudy with Fog 53 11.7 52 11.1 96 96 N 7 11 30.20 1023 1 1 0.00 0.00
11:48 pm 23:48 Mostly Clear with Fog 52 11 52 11 100 100 N 9 15 30.20 1023 0 0 0.00 0.00
11:50 pm 23:50 Mostly Clear with Fog 52 11 52 11 100 100 N 8 13 30.20 1023 0 0 0.00 0.00
11:52 pm 23:52 Mostly Clear with Fog 52 11.1 52 11.1 100 100 N 7 11 30.20 1023 0 0 0.00 0.00

Powered by AerisWeather